RH
100 95 74 54 37 28 33 45 46 32 36 50 56 61 55 58 55 49 47 49 49 46 40 50 57 52 57 78 99 100 100 96 66 62 68 64 57 58 54 48 48 55 53
82 64 44 32 30 34 46 44 39 47 57 63 69 72 65 43 35 36 40 40 41 48 59 59 65 70 74 79 64 57 64 77 75 69 64 55 79 57 58 60 66 65 72
32 34 34 35 43 49 47 46 50 52 61 68 67 65 54 53 46 44 44 44 50 66 67 59 55 54 44 48 47 47 49 61 74 76 56 54 64 66 80 75 89 96 98
36 41 44 45 40 41 48 47 49 55 59 62 63 56 60 53 52 58 64 62 69 70 57 47 39 43 43 44 48 44 39 41 44 66 58 61 64 61 56 80 98 100 99
35 34 34 36 36 35 39 49 55 60 58 52 47 47 48 47 47 51 64 61 68 56 56 64 67 65 53 52 44 35 36 55 44 52 54 49 56 66 72 91 100 98 97
32 32 33 35 40 51 56 52 50 45 44 46 59 67 64 62 64 61 60 58 67 74 74 66 60 56 47 54 51 45 64 66 53 51 50 45 57 80 96 98 100 91 92
44 46 46 52 56 59 55 58 62 62 68 71 64 66 71 58 51 58 67 58 48 40 39 42 54 56 50 55 68 66 58 52 40 38 44 62 81 94 92 96 98 92 91
51 60 62 61 63 55 51 60 76 84 77 76 79 60 47 42 67 90 53 65 46 52 51 50 52 58 49 50 50 50 49 37 36 43 58 74 91 88 76 79 79 79 87
70 75 76 69 69 67 57 52 68 80 69 56 53 48 49 66 58 51 60 82 61 44 38 37 48 49 50 55 56 68 58 34 35 49 66 70 66 62 65 71 72 74 80
73 70 69 69 59 51 54 55 58 57 60 62 63 61 60 62 63 76 88 93 82 60 48 43 42 52 60 52 59 81 61 40 40 50 58 52 53 59 63 74 75 72 70
68 62 73 71 64 61 64 65 62 62 67 72 77 84 87 89 96 100 100 92 78 68 62 61 62 48 43 57 69 88 76 50 41 45 46 50 64 71 70 73 72 71 76
71 73 80 87 89 87 87 98 99 100 100 100 100 100 100 100 100 100 90 77 80 69 73 73 62 48 49 53 77 73 73 52 36 40 42 47 69 76 68 70 73 74 75
85 79 85 95 95 99 100 100 100 100 100 99 98 98 100 94 76 62 58 61 59 74 58 49 40 38 44 46 48 50 34 36 34 35 36 46 59 60 66 67 74 69 68
98 88 78 76 79 85 86 86 84 84 81 83 86 76 67 63 62 53 52 55 47 41 31 36 47 54 52 35 40 39 29 27 30 34 33 36 45 51 54 60 71 65 61
99 100 100 100 88 85 93 95 93 94 87 79 74 68 60 55 47 42 36 30 29 42 43 37 36 32 34 36 29 27 26 27 30 32 33 36 40 48 54 50 49 53 53
100 100 100 100 100 98 93 94 97 89 79 67 56 50 36 31 28 25 24 28 26 28 32 24 22 26 26 27 28 30 32 32 33 34 37 39 41 43 44 43 45 46 42
99 99 94 89 78 68 66 61 52 44 38 36 34 33 28 28 28 31 29 26 20 19 23 25 29 29 30 32 34 35 35 35 37 38 40 41 41 40 36 30 30 31 34
93 87 79 70 63 55 49 41 38 34 30 25 26 28 29 29 30 28 24 24 25 25 24 24 28 30 30 30 29 30 30 30 29 29 31 32 31 26 21 22 24 28 29
57 51 48 48 39 32 29 26 25 26 24 26 30 28 29 27 26 23 20 18 17 17 16 14 13 12 12 13 14 13 14 16 15 15 16 16 18 21 24 24 22 24 18
44 37 32 28 28 28 30 29 32 35 36 33 30 23 20 16 13 12 11 11 11 9 9 9 9 10 12 14 14 13 13 13 14 14 15 15 11 11 14 16 18 14 19
43 52 56 60 56 49 43 38 30 27 26 22 21 18 16 12 10 10 9 8 9 9 9 11 11 12 11 10 10 9 9 10 11 12 11 9 11 12 15 15 14 15 21
55 44 36 30 28 28 25 23 23 28 20 16 12 11 10 12 13 11 10 10 9 10 10 9 8 10 10 9 10 12 12 10 8 8 9 11 11 11 13 14 16 17 25
32 28 25 26 30 29 23 21 21 18 14 14 13 12 11 10 9 10 9 10 9 10 10 10 9 10 11 9 9 7 7 7 9 9 10 11 12 13 13 15 17 20 25
26 24 26 25 23 19 18 14 12 12 11 9 9 9 10 10 6 5 5 6 6 6 6 6 6 6 7 8 8 9 9 10 10 10 10 11 9 10 12 16 18 23 29
22 20 19 16 12 10 9 7 7 6 7 7 7 7 6 5 5 5 5 5 5 5 6 7 8 8 8 9 10 10 9 9 9 9 11 12 12 14 17 19 21 27 16
17 19 16 10 6 6 6 6 6 6 6 6 6 5 5 5 5 6 7 9 8 8 8 8 8 9 9 9 9 7 8 7 8 8 11 13 16 17 23 26 24 15 17
Wind_Speed
31 34 33 33 33 31 24 24 23 20 21 22 24 27 29 32 34 36 38 40 42 42 44 48 53 55 57 59 63 67 69 73 76 78 79 76 75 78 67 67 68 74 76
33 34 33 32 28 25 25 23 23 22 25 27 30 32 34 35 36 37 38 41 44 45 48 52 57 60 59 63 65 67 70 74 78 81 81 77 73 69 69 69 74 79 79
31 30 29 26 25 25 26 27 29 31 31 33 36 37 38 41 43 43 47 48 49 50 54 59 62 61 64 68 72 76 80 81 84 84 78 72 62 64 71 73 77 79 81
26 27 27 27 27 28 31 34 35 37 38 40 42 42 46 48 48 51 52 56 56 58 60 63 63 64 67 73 76 77 83 86 89 85 72 64 66 70 68 72 76 78 82
28 29 29 29 31 34 36 39 42 43 43 44 45 48 51 53 56 58 58 57 61 66 71 69 71 73 76 80 81 85 86 88 87 77 65 65 72 73 72 70 76 79 83
29 29 31 33 35 38 42 45 48 48 49 50 51 55 57 59 60 63 66 69 70 70 74 78 81 82 82 84 86 90 85 87 77 67 66 68 70 73 74 75 80 80 84
30 32 36 39 42 43 45 46 48 51 53 55 59 61 61 63 64 65 65 70 74 77 80 81 82 83 86 87 88 92 94 82 71 69 72 74 74 75 75 80 83 83 87
36 40 41 44 46 47 50 52 55 57 60 61 61 62 63 65 65 65 70 75 77 81 85 86 87 88 91 90 94 94 90 79 72 69 73 73 77 77 80 84 86 85 87
42 44 45 48 50 52 55 59 63 62 62 65 68 68 68 69 71 77 79 81 83 86 90 92 93 92 93 94 96 93 90 79 76 73 72 74 77 80 83 86 90 92 91
46 48 50 52 55 58 61 64 66 66 69 72 73 76 77 79 82 85 86 88 89 91 92 93 96 98 99 98 100 93 92 83 79 75 76 75 76 80 86 91 94 97 101
52 52 56 59 61 64 66 69 70 72 74 78 81 84 88 89 90 90 91 93 94 96 98 98 102 106 109 105 104 98 88 84 80 78 78 80 82 84 89 96 101 103 106
56 57 60 63 66 68 72 77 77 80 84 87 88 89 90 91 94 97 100 103 104 104 105 109 110 112 112 107 98 94 84 84 82 81 83 85 87 90 95 101 105 108 109
66 66 69 72 74 77 79 82 83 84 87 90 92 95 97 100 104 108 109 108 108 110 111 114 116 118 116 107 98 90 86 85 86 86 86 89 92 94 98 103 109 113 113
73 76 78 79 83 84 85 88 91 94 97 100 103 106 108 111 112 113 112 112 112 115 118 114 107 101 101 99 96 92 91 88 89 92 96 96 99 101 103 106 109 115 118
79 83 86 90 91 92 93 95 98 100 102 105 108 110 116 117 115 114 116 118 120 118 110 103 99 94 91 95 98 97 95 96 98 101 105 107 108 109 111 112 111 117 118
85 88 89 92 96 100 104 107 108 110 114 117 120 122 121 117 118 120 120 119 110 99 100 98 99 101 105 104 105 104 102 105 108 109 112 114 116 118 117 118 118 117 113
91 96 98 100 104 107 110 114 118 119 119 121 122 123 124 122 123 121 118 112 108 110 110 111 113 112 115 116 117 117 115 115 116 118 119 120 122 124 123 119 114 113 105
97 102 106 109 112 115 119 119 119 120 122 120 118 119 122 123 122 120 119 118 120 122 121 120 123 123 123 125 123 122 122 122 123 123 122 123 122 122 121 116 109 102 102
108 113 117 120 121 119 120 120 119 121 121 124 127 130 130 129 127 126 125 125 126 128 130 130 130 130 130 128 126 126 125 124 122 122 122 120 116 112 109 106 103 101 98
113 114 112 113 116 117 119 123 125 128 131 133 135 136 138 135 132 132 131 131 130 129 128 128 129 129 128 130 131 131 125 121 115 112 112 114 115 107 101 98 93 87 76
107 113 117 120 123 126 128 130 131 135 137 138 138 139 139 137 133 134 132 130 127 125 126 126 125 126 125 123 125 125 121 116 110 107 106 100 97 86 80 82 76 72 69
116 119 122 125 128 133 134 133 134 139 139 136 136 139 138 136 136 135 131 131 128 127 129 128 126 126 125 121 119 116 113 110 100 97 92 86 81 77 71 69 60 55 55
122 123 125 128 132 134 134 131 133 135 139 137 138 138 136 134 133 129 130 127 125 126 123 118 114 111 110 108 108 107 100 93 83 77 72 70 68 67 64 60 57 53 50
126 128 129 130 123 127 126 128 130 130 132 133 130 131 128 125 123 121 115 110 109 109 107 106 103 99 93 95 95 93 89 84 79 72 66 63 62 62 58 54 50 49 49
117 114 113 115 120 121 127 129 129 126 122 120 119 118 115 113 113 110 106 104 102 100 96 94 90 87 85 84 82 80 78 76 73 68 62 58 55 53 48 48 47 49 45
114 117 116 112 116 120 119 118 116 114 111 108 109 108 107 105 102 99 95 96 94 92 89 85 78 74 72 69 73 70 65 63 59 57 54 52 50 46 44 44 46 44 40
Wind_Direction
232 236 240 245 250 256 243 250 262 268 277 282 284 282 283 284 286 285 287 288 286 286 292 297 298 302 301 299 299 299 299 300 302 302 303 305 306 305 310 311 314 313 312
237 241 246 250 244 243 250 260 265 273 275 274 279 280 281 282 284 284 283 284 287 290 291 296 295 296 297 297 299 300 301 302 304 305 306 305 304 305 309 312 312 311 311
243 243 239 238 242 252 259 261 267 269 273 277 276 276 278 279 281 281 284 286 287 291 294 298 299 298 302 301 301 303 303 304 305 306 306 304 304 310 311 309 310 314 314
231 234 239 246 253 255 258 262 267 271 272 273 274 274 275 278 281 283 287 289 291 293 292 298 296 294 299 303 302 305 305 307 307 306 303 303 307 307 303 305 310 312 313
238 242 248 253 255 258 263 267 271 273 273 272 272 275 278 280 285 287 290 292 293 293 296 296 298 297 296 301 301 301 302 304 306 304 302 304 305 303 304 308 308 312 313
246 249 252 255 258 263 267 268 269 271 273 275 277 279 281 286 290 293 295 295 298 298 298 298 298 299 301 303 305 305 307 306 304 302 303 300 299 301 306 307 307 312 313
256 258 258 259 262 265 268 270 273 274 275 276 279 282 286 290 291 291 295 298 299 300 301 301 300 303 302 304 305 305 307 303 300 299 297 297 300 304 305 307 307 309 311
262 265 266 265 265 267 269 273 275 277 277 278 281 286 288 291 289 291 296 301 300 301 301 302 301 302 302 303 303 301 303 298 296 295 296 300 301 303 305 305 306 308 310
262 265 266 268 268 269 271 273 274 277 280 284 287 288 290 291 290 292 294 296 299 300 299 300 302 301 299 301 301 301 299 292 292 293 296 299 300 304 305 307 308 309 310
263 265 268 271 272 272 273 274 277 280 282 284 287 290 289 289 290 292 292 294 296 297 299 300 301 301 298 296 296 296 295 291 292 292 295 298 300 302 304 305 307 309 309
266 267 269 270 272 273 275 276 279 281 283 286 287 289 290 290 290 290 291 293 295 294 294 296 297 299 299 295 295 297 293 287 289 290 292 295 297 300 303 304 307 310 309
268 271 275 277 278 280 282 283 285 286 286 287 288 288 288 287 287 289 291 292 292 293 295 294 295 296 298 295 295 295 289 286 287 289 291 293 296 299 301 303 305 307 308
276 274 276 279 281 283 284 283 283 284 286 286 286 285 285 286 289 291 292 292 293 292 292 294 294 295 294 293 293 290 289 287 288 289 290 292 294 295 298 299 302 303 305
279 280 279 278 281 281 280 281 282 283 283 284 286 288 291 292 291 291 290 289 288 288 288 292 293 293 292 291 292 289 289 290 290 291 291 292 292 293 295 297 298 300 302
280 280 280 280 281 281 282 283 284 285 286 287 288 289 289 289 289 288 288 288 291 294 294 293 294 294 294 290 289 290 291 291 291 291 293 293 295 295 294 295 297 298 299
279 279 282 282 282 284 285 285 286 286 288 288 289 290 289 289 288 288 289 291 292 291 292 293 292 294 294 293 292 291 292 291 291 291 292 293 294 294 294 294 296 297 298
282 282 282 283 284 286 287 288 289 290 291 291 292 292 292 292 291 291 291 290 288 289 291 291 292 291 290 290 290 290 290 290 289 289 289 289 291 292 293 294 294 294 294
282 283 285 288 290 290 291 290 290 289 290 290 289 289 289 289 288 287 287 288 289 290 290 288 288 287 286 286 286 286 287 286 286 286 287 288 290 290 291 291 292 291 291
288 290 291 290 291 290 289 289 290 288 287 287 289 287 287 287 287 288 288 288 287 287 287 287 287 287 286 286 285 284 284 285 285 287 289 290 290 288 288 289 289 290 291
287 288 289 289 288 288 289 289 290 289 288 287 287 288 288 289 289 289 289 288 288 287 286 285 285 284 284 283 285 286 290 289 289 289 290 291 291 288 287 286 287 288 285
289 290 289 289 290 289 289 289 289 289 289 290 290 290 292 295 294 294 293 291 291 290 289 288 287 288 289 289 289 290 291 290 291 293 291 291 289 289 285 285 287 286 282
288 289 291 292 292 292 290 289 289 291 292 292 292 293 293 292 293 293 292 290 290 289 289 290 289 289 289 290 290 290 290 290 291 290 289 288 284 285 286 287 284 284 279
291 290 290 292 292 291 291 292 291 292 292 292 293 293 293 293 291 290 289 288 288 288 289 288 288 289 289 289 289 291 291 291 290 288 287 284 283 283 282 281 283 281 273
291 291 292 292 290 290 290 290 292 293 292 292 292 290 289 290 292 294 293 293 292 291 291 291 290 290 288 287 288 287 287 287 287 286 284 282 281 281 278 278 276 272 271
294 297 296 295 292 293 292 293 292 292 292 292 293 295 296 296 296 296 296 294 293 292 290 289 289 288 286 285 284 284 285 285 285 283 280 278 277 277 273 272 270 270 263
301 300 300 300 297 295 295 295 295 296 297 297 296 296 296 295 293 292 291 292 291 291 291 290 288 287 286 285 285 286 285 286 287 283 276 272 272 270 266 267 267 260 254